Hourly Weather Godzimierz

Today, 26 January, Tuesday

Time Temperature Precipitation Wind Pressure Humidity
00:00 -2°C° 0 mm 3 mps 745 mmHg 92%
01:00 -2°C° 0 mm 3 mps 745 mmHg 93%
02:00 -2°C° 0 mm 3 mps 746 mmHg 93%
03:00 -3°C° 0 mm 4 mps 746 mmHg 94%
04:00 -4°C° 0 mm 4 mps 746 mmHg 94%
05:00 -4°C° 0 mm 4 mps 746 mmHg 92%
06:00 -3°C° 0 mm 4 mps 746 mmHg 91%
07:00 -4°C° 0 mm 5 mps 746 mmHg 89%
08:00 -4°C° 0 mm 5 mps 746 mmHg 89%
09:00 -4°C° 0 mm 5 mps 747 mmHg 90%
10:00 -3°C° 0 mm 6 mps 747 mmHg 90%
11:00 -3°C° 0 mm 6 mps 747 mmHg 88%
12:00 -3°C° 0 mm 6 mps 747 mmHg 86%
13:00 -2°C° 0 mm 6 mps 747 mmHg 84%
14:00 -1°C° 0 mm 5 mps 748 mmHg 85%
15:00 -1°C° 0 mm 5 mps 748 mmHg 85%
16:00 -2°C° 0 mm 5 mps 748 mmHg 86%
17:00 -2°C° 0.1 mm 5 mps 748 mmHg 89%
18:00 -2°C° 0.1 mm 5 mps 748 mmHg 91%
19:00 -2°C° 0.1 mm 5 mps 748 mmHg 94%
20:00 -2°C° 0 mm 5 mps 748 mmHg 92%
21:00 -2°C° 0 mm 5 mps 749 mmHg 91%
22:00 -2°C° 0 mm 5 mps 749 mmHg 90%
23:00 -2°C° 0 mm 5 mps 749 mmHg 89%

Tomorrow, 27 January, Wednesday

Time Temperature Precipitation Wind Pressure Humidity
00:00 -4°C° 0 mm 5 mps 749 mmHg 88%
01:00 -4°C° 0 mm 6 mps 749 mmHg 87%
02:00 -4°C° 0 mm 5 mps 749 mmHg 88%
03:00 -4°C° 0 mm 5 mps 749 mmHg 88%
04:00 -4°C° 0 mm 5 mps 749 mmHg 89%
05:00 -4°C° 0 mm 5 mps 750 mmHg 90%
06:00 -4°C° 0 mm 5 mps 750 mmHg 91%
07:00 -3°C° 0 mm 4 mps 750 mmHg 92%
08:00 -3°C° 0 mm 4 mps 750 mmHg 90%
09:00 -2°C° 0 mm 5 mps 751 mmHg 89%
10:00 -2°C° 0 mm 5 mps 751 mmHg 87%
11:00 -2°C° 0 mm 5 mps 751 mmHg 85%
12:00 -1°C° 0 mm 4 mps 751 mmHg 83%
13:00 -1°C° 0 mm 4 mps 751 mmHg 80%
14:00 -2°C° 0 mm 4 mps 750 mmHg 84%
15:00 -1°C° 0 mm 3 mps 750 mmHg 88%
16:00 -2°C° 0 mm 3 mps 750 mmHg 91%
17:00 -2°C° 0 mm 3 mps 750 mmHg 90%
18:00 -1°C° 0 mm 2 mps 750 mmHg 89%
19:00 -1°C° 0 mm 2 mps 751 mmHg 88%
20:00 -1°C° 0 mm 2 mps 750 mmHg 87%
21:00 -1°C° 0 mm 3 mps 750 mmHg 87%
22:00 -1°C° 0 mm 3 mps 750 mmHg 86%
23:00 -2°C° 0 mm 4 mps 749 mmHg 87%

Day after tomorrow, 28 January, Thursday

Time Temperature Precipitation Wind Pressure Humidity
00:00 -3°C° 0 mm 4 mps 748 mmHg 87%
01:00 -4°C° 0 mm 5 mps 748 mmHg 88%
02:00 -4°C° 0.2 mm 6 mps 747 mmHg 90%
03:00 -4°C° 0.2 mm 6 mps 746 mmHg 91%
04:00 -4°C° 0.2 mm 7 mps 745 mmHg 93%
05:00 -3°C° 0.6 mm 7 mps 745 mmHg 95%
06:00 -3°C° 0.6 mm 6 mps 744 mmHg 96%
07:00 -3°C° 0.6 mm 6 mps 744 mmHg 97%
08:00 -3°C° 0.2 mm 6 mps 744 mmHg 93%
09:00 -3°C° 0.2 mm 7 mps 743 mmHg 89%
10:00 -3°C° 0.2 mm 7 mps 743 mmHg 86%
11:00 -3°C° 0 mm 7 mps 743 mmHg 82%
12:00 -3°C° 0 mm 7 mps 743 mmHg 78%
13:00 -3°C° 0 mm 7 mps 743 mmHg 74%
14:00 -4°C° 0 mm 7 mps 742 mmHg 75%
15:00 -4°C° 0 mm 7 mps 742 mmHg 77%
16:00 -4°C° 0 mm 6 mps 742 mmHg 78%
17:00 -4°C° 0 mm 6 mps 741 mmHg 79%
18:00 -5°C° 0 mm 6 mps 741 mmHg 80%
19:00 -5°C° 0 mm 6 mps 741 mmHg 80%
20:00 -5°C° 0 mm 6 mps 741 mmHg 82%
21:00 -5°C° 0 mm 6 mps 741 mmHg 83%
22:00 -5°C° 0 mm 6 mps 740 mmHg 84%
23:00 -5°C° 0 mm 6 mps 740 mmHg 84%

29 January, Friday

Time Temperature Precipitation Wind Pressure Humidity
00:00 -6°C° 0 mm 7 mps 740 mmHg 84%
01:00 -6°C° 0 mm 7 mps 740 mmHg 84%
02:00 -6°C° 0 mm 7 mps 740 mmHg 84%
03:00 -6°C° 0 mm 7 mps 740 mmHg 84%
04:00 -4°C° 0 mm 7 mps 739 mmHg 84%
05:00 -4°C° 0 mm 6 mps 739 mmHg 83%
06:00 -4°C° 0 mm 6 mps 739 mmHg 83%
07:00 -4°C° 0 mm 5 mps 739 mmHg 83%
08:00 -4°C° 0 mm 5 mps 740 mmHg 84%
09:00 -4°C° 0 mm 5 mps 740 mmHg 85%
10:00 -4°C° 0 mm 5 mps 740 mmHg 86%
11:00 -2°C° 0 mm 5 mps 740 mmHg 83%
12:00 -2°C° 0 mm 5 mps 740 mmHg 81%
13:00 -2°C° 0 mm 5 mps 740 mmHg 79%
14:00 -2°C° 0 mm 5 mps 740 mmHg 81%
15:00 -2°C° 0 mm 4 mps 741 mmHg 82%
16:00 -2°C° 0 mm 4 mps 741 mmHg 84%
17:00 -3°C° 0 mm 4 mps 741 mmHg 85%
18:00 -3°C° 0 mm 4 mps 741 mmHg 86%
19:00 -4°C° 0 mm 4 mps 742 mmHg 86%
20:00 -4°C° 0 mm 4 mps 742 mmHg 85%
21:00 -4°C° 0 mm 4 mps 742 mmHg 84%
22:00 -4°C° 0 mm 4 mps 742 mmHg 83%
23:00 -4°C° 0 mm 4 mps 742 mmHg 83%

30 January, Saturday

Time Temperature Precipitation Wind Pressure Humidity
00:00 -5°C° 0 mm 5 mps 742 mmHg 84%
01:00 -6°C° 0 mm 5 mps 742 mmHg 84%
02:00 -6°C° 0 mm 5 mps 742 mmHg 84%
03:00 -6°C° 0 mm 5 mps 742 mmHg 84%
04:00 -6°C° 0 mm 5 mps 742 mmHg 85%
05:00 -6°C° 0.1 mm 5 mps 742 mmHg 85%
06:00 -6°C° 0.1 mm 5 mps 743 mmHg 85%
07:00 -6°C° 0.1 mm 5 mps 743 mmHg 85%
08:00 -6°C° 0 mm 5 mps 743 mmHg 84%
09:00 -5°C° 0 mm 4 mps 743 mmHg 82%
10:00 -4°C° 0 mm 4 mps 743 mmHg 81%
11:00 -4°C° 0.2 mm 4 mps 743 mmHg 84%
12:00 -4°C° 0.2 mm 4 mps 743 mmHg 88%
13:00 -5°C° 0.2 mm 5 mps 743 mmHg 91%
14:00 -5°C° 0.5 mm 5 mps 743 mmHg 87%
15:00 -5°C° 0.5 mm 5 mps 743 mmHg 83%
16:00 -5°C° 0.5 mm 5 mps 743 mmHg 79%
17:00 -6°C° 0 mm 5 mps 743 mmHg 81%
18:00 -7°C° 0 mm 4 mps 744 mmHg 82%
19:00 -7°C° 0 mm 4 mps 744 mmHg 84%
20:00 -7°C° 0 mm 4 mps 744 mmHg 86%
21:00 -7°C° 0 mm 4 mps 745 mmHg 88%
22:00 -7°C° 0 mm 5 mps 745 mmHg 91%
23:00 -7°C° 0 mm 5 mps 745 mmHg 90%

31 January, Sunday

Time Temperature Precipitation Wind Pressure Humidity
00:00 -7°C° 0 mm 5 mps 745 mmHg 90%
01:00 -6°C° 0 mm 5 mps 745 mmHg 90%
02:00 -7°C° 0 mm 5 mps 745 mmHg 89%
03:00 -7°C° 0 mm 5 mps 745 mmHg 89%
04:00 -7°C° 0 mm 5 mps 745 mmHg 88%
05:00 -7°C° 0 mm 5 mps 745 mmHg 89%
06:00 -7°C° 0 mm 5 mps 745 mmHg 90%
07:00 -7°C° 0 mm 5 mps 745 mmHg 91%
08:00 -6°C° 0 mm 6 mps 745 mmHg 89%
09:00 -6°C° 0 mm 6 mps 746 mmHg 87%
10:00 -6°C° 0 mm 6 mps 746 mmHg 86%
11:00 -5°C° 0 mm 6 mps 745 mmHg 84%
12:00 -5°C° 0 mm 6 mps 745 mmHg 82%
13:00 -4°C° 0 mm 6 mps 745 mmHg 80%
14:00 -5°C° 0 mm 5 mps 745 mmHg 81%
15:00 -4°C° 0 mm 4 mps 745 mmHg 83%
16:00 -4°C° 0 mm 3 mps 744 mmHg 84%
17:00 -5°C° 0 mm 3 mps 744 mmHg 86%
18:00 -4°C° 0 mm 2 mps 744 mmHg 88%
19:00 -5°C° 0 mm 2 mps 744 mmHg 90%
20:00 -5°C° 0 mm 2 mps 744 mmHg 90%
21:00 -5°C° 0 mm 2 mps 744 mmHg 90%
22:00 -3°C° 0 mm 1 mps 744 mmHg 89%
23:00 -3°C° 0 mm 1 mps 744 mmHg 88%
Show more